data,erosion plot,erosion plot,date beginn,date end,time beginn,time end,total ,total,N load,N load,N measurem. ,P load,P load,P measurem. ,SOC load,SOC load,SOC measur.,sand in,vfs in,silt in,clay in
,coordinate,coordinate,,,,,sediment,runoff,sediment,runoff,method,sediment,runoff,method,sediment,runoff,method,sediment,sediment,sediment,sediment
,longitude,latitude,,,,,,,,,,,,,,,,,,,
abbreviation,WGS84LO,WGS84LA,,,,,tsed,trun,N-sed,N-ro,N-meas,P-sed,P-ro,P-meas,SOC-sed,SOC-ro,SOC-meas,sand-sed,vfs-sed,silt-sed,clay-sed
unit, XX.XX (E), XX.XX (N),YYYY-MM-DD,YYYY-MM-DD,hh:mm,hh:mm,t ha-1,l/s,kg ha-1,kg ha-1,characters,kg ha-1,kg ha-1,characters,kg ha-1,kg ha-1,characters,%,%,%,%
,49.96,14.87,,,,,,,,,,,,,,,,,,,
,,,01/01/2013,02/01/2013,00:00,00:00,,0,,,,,,,,,,,,,
,,,02/01/2013,03/01/2013,00:00,00:00,,0,,,,,,,,,,,,,
,,,03/01/2013,04/01/2013,00:00,00:00,,0,,,,,,,,,,,,,
,,,04/01/2013,05/01/2013,00:00,00:00,,0,,,,,,,,,,,,,
,,,05/01/2013,06/01/2013,00:00,00:00,,0,,,,,,,,,,,,,
,,,06/01/2013,07/01/2013,00:00,00:00,,0,,,,,,,,,,,,,
,,,07/01/2013,08/01/2013,00:00,00:00,,0,,,,,,,,,,,,,
,,,08/01/2013,09/01/2013,00:00,00:00,,0,,,,,,,,,,,,,
,,,09/01/2013,10/01/2013,00:00,00:00,,0,,,,,,,,,,,,,
,,,10/01/2013,11/01/2013,00:00,00:00,,0,,,,,,,,,,,,,
,,,11/01/2013,12/01/2013,00:00,00:00,,0,,,,,,,,,,,,,
,,,12/01/2013,13/01/2013,00:00,00:00,,0,,,,,,,,,,,,,
,,,13/01/2013,14/01/2013,00:00,00:00,,0,,,,,,,,,,,,,
,,,14/01/2013,15/01/2013,00:00,00:00,,0,,,,,,,,,,,,,
,,,15/01/2013,16/01/2013,00:00,00:00,,0,,,,,,,,,,,,,
,,,16/01/2013,17/01/2013,00:00,00:00,,0,,,,,,,,,,,,,
,,,17/01/2013,18/01/2013,00:00,00:00,,0,,,,,,,,,,,,,
,,,18/01/2013,19/01/2013,00:00,00:00,,0,,,,,,,,,,,,,
,,,19/01/2013,20/01/2013,00:00,00:00,,0,,,,,,,,,,,,,
,,,20/01/2013,21/01/2013,00:00,00:00,,0,,,,,,,,,,,,,
,,,21/01/2013,22/01/2013,00:00,00:00,,0,,,,,,,,,,,,,
,,,22/01/2013,23/01/2013,00:00,00:00,,0,,,,,,,,,,,,,
,,,23/01/2013,24/01/2013,00:00,00:00,,0,,,,,,,,,,,,,
,,,24/01/2013,25/01/2013,00:00,00:00,,0,,,,,,,,,,,,,
,,,25/01/2013,26/01/2013,00:00,00:00,,0,,,,,,,,,,,,,
,,,26/01/2013,27/01/2013,00:00,00:00,,0,,,,,,,,,,,,,
,,,27/01/2013,28/01/2013,00:00,00:00,,0,,,,,,,,,,,,,
,,,28/01/2013,29/01/2013,00:00,00:00,,0,,,,,,,,,,,,,
,,,29/01/2013,30/01/2013,00:00,00:00,,0,,,,,,,,,,,,,
,,,30/01/2013,31/01/2013,00:00,00:00,,0,,,,,,,,,,,,,
,,,31/01/2013,01/02/2013,00:00,00:00,,0,,,,,,,,,,,,,
,,,01/02/2013,02/02/2013,00:00,00:00,,0,,,,,,,,,,,,,
,,,02/02/2013,03/02/2013,00:00,00:00,,0,,,,,,,,,,,,,
,,,03/02/2013,04/02/2013,00:00,00:00,,0,,,,,,,,,,,,,
,,,04/02/2013,05/02/2013,00:00,00:00,,0,,,,,,,,,,,,,
,,,05/02/2013,06/02/2013,00:00,00:00,,0,,,,,,,,,,,,,
,,,06/02/2013,07/02/2013,00:00,00:00,,0,,,,,,,,,,,,,
,,,07/02/2013,08/02/2013,00:00,00:00,,0,,,,,,,,,,,,,
,,,08/02/2013,09/02/2013,00:00,00:00,,0,,,,,,,,,,,,,
,,,09/02/2013,10/02/2013,00:00,00:00,,0,,,,,,,,,,,,,
,,,10/02/2013,11/02/2013,00:00,00:00,,0,,,,,,,,,,,,,
,,,11/02/2013,12/02/2013,00:00,00:00,,0,,,,,,,,,,,,,
,,,12/02/2013,13/02/2013,00:00,00:00,,0,,,,,,,,,,,,,
,,,13/02/2013,14/02/2013,00:00,00:00,,0,,,,,,,,,,,,,
,,,14/02/2013,15/02/2013,00:00,00:00,,0,,,,,,,,,,,,,
,,,15/02/2013,16/02/2013,00:00,00:00,,0,,,,,,,,,,,,,
,,,16/02/2013,17/02/2013,00:00,00:00,,0,,,,,,,,,,,,,
,,,17/02/2013,18/02/2013,00:00,00:00,,0,,,,,,,,,,,,,
,,,18/02/2013,19/02/2013,00:00,00:00,,0,,,,,,,,,,,,,
,,,19/02/2013,20/02/2013,00:00,00:00,,0,,,,,,,,,,,,,
,,,20/02/2013,21/02/2013,00:00,00:00,,0,,,,,,,,,,,,,
,,,21/02/2013,22/02/2013,00:00,00:00,,0,,,,,,,,,,,,,
,,,22/02/2013,23/02/2013,00:00,00:00,,0,,,,,,,,,,,,,
,,,23/02/2013,24/02/2013,00:00,00:00,,0,,,,,,,,,,,,,
,,,24/02/2013,25/02/2013,00:00,00:00,,0,,,,,,,,,,,,,
,,,25/02/2013,26/02/2013,00:00,00:00,,0,,,,,,,,,,,,,
,,,26/02/2013,27/02/2013,00:00,00:00,,0,,,,,,,,,,,,,
,,,27/02/2013,28/02/2013,00:00,00:00,,0,,,,,,,,,,,,,
,,,28/02/2013,01/03/2013,00:00,00:00,,0,,,,,,,,,,,,,
,,,01/03/2013,02/03/2013,00:00,00:00,,0,,,,,,,,,,,,,
,,,02/03/2013,03/03/2013,00:00,00:00,,0,,,,,,,,,,,,,
,,,03/03/2013,04/03/2013,00:00,00:00,,0,,,,,,,,,,,,,
,,,04/03/2013,05/03/2013,00:00,00:00,,0,,,,,,,,,,,,,
,,,05/03/2013,06/03/2013,00:00,00:00,,0,,,,,,,,,,,,,
,,,06/03/2013,07/03/2013,00:00,00:00,,0,,,,,,,,,,,,,
,,,07/03/2013,08/03/2013,00:00,00:00,,0,,,,,,,,,,,,,
,,,08/03/2013,09/03/2013,00:00,00:00,,0,,,,,,,,,,,,,
,,,09/03/2013,10/03/2013,00:00,00:00,,0,,,,,,,,,,,,,
,,,10/03/2013,11/03/2013,00:00,00:00,,0,,,,,,,,,,,,,
,,,11/03/2013,12/03/2013,00:00,00:00,,0,,,,,,,,,,,,,
,,,12/03/2013,13/03/2013,00:00,00:00,,0,,,,,,,,,,,,,
,,,13/03/2013,14/03/2013,00:00,00:00,,0,,,,,,,,,,,,,
,,,14/03/2013,15/03/2013,00:00,00:00,,0,,,,,,,,,,,,,
,,,15/03/2013,16/03/2013,00:00,00:00,,0,,,,,,,,,,,,,
,,,16/03/2013,17/03/2013,00:00,00:00,,0,,,,,,,,,,,,,
,,,17/03/2013,18/03/2013,00:00,00:00,,0,,,,,,,,,,,,,
,,,18/03/2013,19/03/2013,00:00,00:00,,0,,,,,,,,,,,,,
,,,19/03/2013,20/03/2013,00:00,00:00,,0,,,,,,,,,,,,,
,,,20/03/2013,21/03/2013,00:00,00:00,,0,,,,,,,,,,,,,
,,,21/03/2013,22/03/2013,00:00,00:00,,0,,,,,,,,,,,,,
,,,22/03/2013,23/03/2013,00:00,00:00,,0,,,,,,,,,,,,,
,,,23/03/2013,24/03/2013,00:00,00:00,,0,,,,,,,,,,,,,
,,,24/03/2013,25/03/2013,00:00,00:00,,0,,,,,,,,,,,,,
,,,25/03/2013,26/03/2013,00:00,00:00,,0,,,,,,,,,,,,,
,,,26/03/2013,27/03/2013,00:00,00:00,,0,,,,,,,,,,,,,
,,,27/03/2013,28/03/2013,00:00,00:00,,0,,,,,,,,,,,,,
,,,28/03/2013,29/03/2013,00:00,00:00,,0,,,,,,,,,,,,,
,,,29/03/2013,30/03/2013,00:00,00:00,,0,,,,,,,,,,,,,
,,,30/03/2013,31/03/2013,00:00,00:00,,0,,,,,,,,,,,,,
,,,31/03/2013,01/04/2013,00:00,00:00,,0,,,,,,,,,,,,,
,,,01/04/2013,02/04/2013,00:00,00:00,,0,,,,,,,,,,,,,
,,,02/04/2013,03/04/2013,00:00,00:00,,0,,,,,,,,,,,,,
,,,03/04/2013,04/04/2013,00:00,00:00,,0,,,,,,,,,,,,,
,,,04/04/2013,05/04/2013,00:00,00:00,,0,,,,,,,,,,,,,
,,,05/04/2013,06/04/2013,00:00,00:00,,0,,,,,,,,,,,,,
,,,06/04/2013,07/04/2013,00:00,00:00,,0,,,,,,,,,,,,,
,,,07/04/2013,08/04/2013,00:00,00:00,,0,,,,,,,,,,,,,
,,,08/04/2013,09/04/2013,00:00,00:00,,0,,,,,,,,,,,,,
,,,09/04/2013,10/04/2013,00:00,00:00,,0,,,,,,,,,,,,,
,,,10/04/2013,11/04/2013,00:00,00:00,,0,,,,,,,,,,,,,
,,,11/04/2013,12/04/2013,00:00,00:00,,0,,,,,,,,,,,,,
,,,12/04/2013,13/04/2013,00:00,00:00,,0,,,,,,,,,,,,,
,,,13/04/2013,14/04/2013,00:00,00:00,,0,,,,,,,,,,,,,
,,,14/04/2013,15/04/2013,00:00,00:00,,0,,,,,,,,,,,,,
,,,15/04/2013,16/04/2013,00:00,00:00,,0,,,,,,,,,,,,,
,,,16/04/2013,17/04/2013,00:00,00:00,,0,,,,,,,,,,,,,
,,,17/04/2013,18/04/2013,00:00,00:00,,0,,,,,,,,,,,,,
,,,18/04/2013,19/04/2013,00:00,00:00,,0,,,,,,,,,,,,,
,,,19/04/2013,20/04/2013,00:00,00:00,,0,,,,,,,,,,,,,
,,,20/04/2013,21/04/2013,00:00,00:00,,0,,,,,,,,,,,,,
,,,21/04/2013,22/04/2013,00:00,00:00,,0,,,,,,,,,,,,,
,,,22/04/2013,23/04/2013,00:00,00:00,,0,,,,,,,,,,,,,
,,,23/04/2013,24/04/2013,00:00,00:00,,0,,,,,,,,,,,,,
,,,24/04/2013,25/04/2013,00:00,00:00,,0,,,,,,,,,,,,,
,,,25/04/2013,26/04/2013,00:00,00:00,,0,,,,,,,,,,,,,
,,,26/04/2013,27/04/2013,00:00,00:00,,0,,,,,,,,,,,,,
,,,27/04/2013,28/04/2013,00:00,00:00,,0,,,,,,,,,,,,,
,,,28/04/2013,29/04/2013,00:00,00:00,,0,,,,,,,,,,,,,
,,,29/04/2013,30/04/2013,00:00,00:00,,0,,,,,,,,,,,,,
,,,30/04/2013,01/05/2013,00:00,00:00,,0,,,,,,,,,,,,,
,,,01/05/2013,02/05/2013,00:00,00:00,,0,,,,,,,,,,,,,
,,,02/05/2013,03/05/2013,00:00,00:00,,0,,,,,,,,,,,,,
,,,03/05/2013,04/05/2013,00:00,00:00,,0,,,,,,,,,,,,,
,,,04/05/2013,05/05/2013,00:00,00:00,,0,,,,,,,,,,,,,
,,,05/05/2013,06/05/2013,00:00,00:00,,0,,,,,,,,,,,,,
,,,06/05/2013,07/05/2013,00:00,00:00,,0,,,,,,,,,,,,,
,,,07/05/2013,08/05/2013,00:00,00:00,,0,,,,,,,,,,,,,
,,,08/05/2013,09/05/2013,00:00,00:00,,0,,,,,,,,,,,,,
,,,09/05/2013,10/05/2013,00:00,00:00,,0,,,,,,,,,,,,,
,,,10/05/2013,11/05/2013,00:00,00:00,,0,,,,,,,,,,,,,
,,,11/05/2013,12/05/2013,00:00,00:00,,0,,,,,,,,,,,,,
,,,12/05/2013,13/05/2013,00:00,00:00,,0,,,,,,,,,,,,,
,,,13/05/2013,14/05/2013,00:00,00:00,,0,,,,,,,,,,,,,
,,,14/05/2013,15/05/2013,00:00,00:00,,0,,,,,,,,,,,,,
,,,15/05/2013,16/05/2013,00:00,00:00,,0,,,,,,,,,,,,,
,,,16/05/2013,17/05/2013,00:00,00:00,,0,,,,,,,,,,,,,
,,,17/05/2013,18/05/2013,00:00,00:00,,0,,,,,,,,,,,,,
,,,18/05/2013,19/05/2013,00:00,00:00,,0,,,,,,,,,,,,,
,,,19/05/2013,20/05/2013,00:00,00:00,,0,,,,,,,,,,,,,
,,,20/05/2013,21/05/2013,00:00,00:00,,0,,,,,,,,,,,,,
,,,21/05/2013,22/05/2013,00:00,00:00,,0,,,,,,,,,,,,,
,,,22/05/2013,23/05/2013,00:00,00:00,,0,,,,,,,,,,,,,
,,,23/05/2013,24/05/2013,00:00,00:00,,0,,,,,,,,,,,,,
,,,24/05/2013,25/05/2013,00:00,00:00,,0,,,,,,,,,,,,,
,,,25/05/2013,26/05/2013,00:00,00:00,,0,,,,,,,,,,,,,
,,,26/05/2013,27/05/2013,00:00,00:00,,0,,,,,,,,,,,,,
,,,27/05/2013,28/05/2013,00:00,00:00,,0,,,,,,,,,,,,,
,,,28/05/2013,29/05/2013,00:00,00:00,,0,,,,,,,,,,,,,
,,,29/05/2013,30/05/2013,00:00,00:00,,0,,,,,,,,,,,,,
,,,30/05/2013,31/05/2013,00:00,00:00,,0,,,,,,,,,,,,,
,,,31/05/2013,01/06/2013,00:00,00:00,,0,,,,,,,,,,,,,
,,,01/06/2013,02/06/2013,00:00,00:00,,0,,,,,,,,,,,,,
,,,02/06/2013,03/06/2013,00:00,00:00,,0,,,,,,,,,,,,,
,,,03/06/2013,04/06/2013,00:00,00:00,,0,,,,,,,,,,,,,
,,,04/06/2013,05/06/2013,00:00,00:00,,0,,,,,,,,,,,,,
,,,05/06/2013,06/06/2013,00:00,00:00,,0,,,,,,,,,,,,,
,,,06/06/2013,07/06/2013,00:00,00:00,,0,,,,,,,,,,,,,
,,,07/06/2013,08/06/2013,00:00,00:00,,0,,,,,,,,,,,,,
,,,08/06/2013,09/06/2013,00:00,00:00,,0,,,,,,,,,,,,,
,,,09/06/2013,10/06/2013,00:00,00:00,,0,,,,,,,,,,,,,
,,,10/06/2013,11/06/2013,00:00,00:00,,0,,,,,,,,,,,,,
,,,11/06/2013,12/06/2013,00:00,00:00,,0,,,,,,,,,,,,,
,,,12/06/2013,13/06/2013,00:00,00:00,,0,,,,,,,,,,,,,
,,,13/06/2013,14/06/2013,00:00,00:00,,0,,,,,,,,,,,,,
,,,14/06/2013,15/06/2013,00:00,00:00,,0,,,,,,,,,,,,,
,,,15/06/2013,16/06/2013,00:00,00:00,,0,,,,,,,,,,,,,
,,,16/06/2013,17/06/2013,00:00,00:00,,0,,,,,,,,,,,,,
,,,17/06/2013,18/06/2013,00:00,00:00,,0,,,,,,,,,,,,,
,,,18/06/2013,19/06/2013,00:00,00:00,,0,,,,,,,,,,,,,
,,,19/06/2013,20/06/2013,00:00,00:00,,0,,,,,,,,,,,,,
,,,20/06/2013,21/06/2013,00:00,00:00,,0,,,,,,,,,,,,,
,,,21/06/2013,22/06/2013,00:00,00:00,,0,,,,,,,,,,,,,
,,,22/06/2013,23/06/2013,00:00,00:00,,0,,,,,,,,,,,,,
,,,23/06/2013,24/06/2013,00:00,00:00,,0,,,,,,,,,,,,,
,,,24/06/2013,25/06/2013,00:00,00:00,,0,,,,,,,,,,,,,
,,,25/06/2013,26/06/2013,00:00,00:00,,0,,,,,,,,,,,,,
,,,26/06/2013,27/06/2013,00:00,00:00,,0,,,,,,,,,,,,,
,,,27/06/2013,28/06/2013,00:00,00:00,,0,,,,,,,,,,,,,
,,,28/06/2013,29/06/2013,00:00,00:00,,0,,,,,,,,,,,,,
,,,29/06/2013,30/06/2013,00:00,00:00,,0,,,,,,,,,,,,,
,,,30/06/2013,01/07/2013,00:00,00:00,,0,,,,,,,,,,,,,
,,,01/07/2013,02/07/2013,00:00,00:00,,0,,,,,,,,,,,,,
,,,02/07/2013,03/07/2013,00:00,00:00,,0,,,,,,,,,,,,,
,,,03/07/2013,04/07/2013,00:00,00:00,,0,,,,,,,,,,,,,
,,,04/07/2013,05/07/2013,00:00,00:00,,0,,,,,,,,,,,,,
,,,05/07/2013,06/07/2013,00:00,00:00,,0,,,,,,,,,,,,,
,,,06/07/2013,07/07/2013,00:00,00:00,,0,,,,,,,,,,,,,
,,,07/07/2013,08/07/2013,00:00,00:00,,0,,,,,,,,,,,,,
,,,08/07/2013,09/07/2013,00:00,00:00,,0,,,,,,,,,,,,,
,,,09/07/2013,10/07/2013,00:00,00:00,,0,,,,,,,,,,,,,
,,,10/07/2013,11/07/2013,00:00,00:00,,0,,,,,,,,,,,,,
,,,11/07/2013,12/07/2013,00:00,00:00,,0,,,,,,,,,,,,,
,,,12/07/2013,13/07/2013,00:00,00:00,,0,,,,,,,,,,,,,
,,,13/07/2013,14/07/2013,00:00,00:00,,0,,,,,,,,,,,,,
,,,14/07/2013,15/07/2013,00:00,00:00,,0,,,,,,,,,,,,,
,,,15/07/2013,16/07/2013,00:00,00:00,,0,,,,,,,,,,,,,
,,,16/07/2013,17/07/2013,00:00,00:00,,0,,,,,,,,,,,,,
,,,17/07/2013,18/07/2013,00:00,00:00,,0,,,,,,,,,,,,,
,,,18/07/2013,19/07/2013,00:00,00:00,,0,,,,,,,,,,,,,
,,,19/07/2013,20/07/2013,00:00,00:00,,0,,,,,,,,,,,,,
,,,20/07/2013,21/07/2013,00:00,00:00,,0,,,,,,,,,,,,,
,,,21/07/2013,22/07/2013,00:00,00:00,,0,,,,,,,,,,,,,
,,,22/07/2013,23/07/2013,00:00,00:00,,0,,,,,,,,,,,,,
,,,23/07/2013,24/07/2013,00:00,00:00,,0,,,,,,,,,,,,,
,,,24/07/2013,25/07/2013,00:00,00:00,,0,,,,,,,,,,,,,
,,,25/07/2013,26/07/2013,00:00,00:00,,0,,,,,,,,,,,,,
,,,26/07/2013,27/07/2013,00:00,00:00,,0,,,,,,,,,,,,,
,,,27/07/2013,28/07/2013,00:00,00:00,,0,,,,,,,,,,,,,
,,,28/07/2013,29/07/2013,00:00,00:00,,0,,,,,,,,,,,,,
,,,29/07/2013,30/07/2013,00:00,00:00,,0,,,,,,,,,,,,,
,,,30/07/2013,31/07/2013,00:00,00:00,,0,,,,,,,,,,,,,
,,,31/07/2013,01/08/2013,00:00,00:00,,0,,,,,,,,,,,,,
,,,01/08/2013,02/08/2013,00:00,00:00,,0,,,,,,,,,,,,,
,,,02/08/2013,03/08/2013,00:00,00:00,,0,,,,,,,,,,,,,
,,,03/08/2013,04/08/2013,00:00,00:00,,0,,,,,,,,,,,,,
,,,04/08/2013,05/08/2013,00:00,00:00,,0,,,,,,,,,,,,,
,,,05/08/2013,06/08/2013,00:00,00:00,,0,,,,,,,,,,,,,
,,,06/08/2013,07/08/2013,00:00,00:00,,0,,,,,,,,,,,,,
,,,07/08/2013,08/08/2013,00:00,00:00,,0,,,,,,,,,,,,,
,,,08/08/2013,09/08/2013,00:00,00:00,,0,,,,,,,,,,,,,
,,,09/08/2013,10/08/2013,00:00,00:00,,0,,,,,,,,,,,,,
,,,10/08/2013,11/08/2013,00:00,00:00,,0,,,,,,,,,,,,,
,,,11/08/2013,12/08/2013,00:00,00:00,,0,,,,,,,,,,,,,
,,,12/08/2013,13/08/2013,00:00,00:00,,0,,,,,,,,,,,,,
,,,13/08/2013,14/08/2013,00:00,00:00,,0,,,,,,,,,,,,,
,,,14/08/2013,15/08/2013,00:00,00:00,,0,,,,,,,,,,,,,
,,,15/08/2013,16/08/2013,00:00,00:00,,0,,,,,,,,,,,,,
,,,16/08/2013,17/08/2013,00:00,00:00,,0,,,,,,,,,,,,,
,,,17/08/2013,18/08/2013,00:00,00:00,,0,,,,,,,,,,,,,
,,,18/08/2013,19/08/2013,00:00,00:00,,0,,,,,,,,,,,,,
,,,19/08/2013,20/08/2013,00:00,00:00,,0,,,,,,,,,,,,,
,,,20/08/2013,21/08/2013,00:00,00:00,,0,,,,,,,,,,,,,
,,,21/08/2013,22/08/2013,00:00,00:00,,0,,,,,,,,,,,,,
,,,22/08/2013,23/08/2013,00:00,00:00,,0,,,,,,,,,,,,,
,,,23/08/2013,24/08/2013,00:00,00:00,,0,,,,,,,,,,,,,
,,,24/08/2013,25/08/2013,00:00,00:00,,0,,,,,,,,,,,,,
,,,25/08/2013,26/08/2013,00:00,00:00,,0,,,,,,,,,,,,,
,,,26/08/2013,27/08/2013,00:00,00:00,,0,,,,,,,,,,,,,
,,,27/08/2013,28/08/2013,00:00,00:00,,0,,,,,,,,,,,,,
,,,28/08/2013,29/08/2013,00:00,00:00,,0,,,,,,,,,,,,,
,,,29/08/2013,30/08/2013,00:00,00:00,,0,,,,,,,,,,,,,
,,,30/08/2013,31/08/2013,00:00,00:00,,0,,,,,,,,,,,,,
,,,31/08/2013,01/09/2013,00:00,00:00,,0,,,,,,,,,,,,,
,,,01/09/2013,02/09/2013,00:00,00:00,,0,,,,,,,,,,,,,
,,,02/09/2013,03/09/2013,00:00,00:00,,0,,,,,,,,,,,,,
,,,03/09/2013,04/09/2013,00:00,00:00,,0,,,,,,,,,,,,,
,,,04/09/2013,05/09/2013,00:00,00:00,,0,,,,,,,,,,,,,
,,,05/09/2013,06/09/2013,00:00,00:00,,0,,,,,,,,,,,,,
,,,06/09/2013,07/09/2013,00:00,00:00,,0,,,,,,,,,,,,,
,,,07/09/2013,08/09/2013,00:00,00:00,,0,,,,,,,,,,,,,
,,,08/09/2013,09/09/2013,00:00,00:00,,0,,,,,,,,,,,,,
,,,09/09/2013,10/09/2013,00:00,00:00,,0,,,,,,,,,,,,,
,,,10/09/2013,11/09/2013,00:00,00:00,,0,,,,,,,,,,,,,
,,,11/09/2013,12/09/2013,00:00,00:00,,0,,,,,,,,,,,,,
,,,12/09/2013,13/09/2013,00:00,00:00,,0,,,,,,,,,,,,,
,,,13/09/2013,14/09/2013,00:00,00:00,,0,,,,,,,,,,,,,
,,,14/09/2013,15/09/2013,00:00,00:00,,0,,,,,,,,,,,,,
,,,15/09/2013,16/09/2013,00:00,00:00,,0,,,,,,,,,,,,,
,,,16/09/2013,17/09/2013,00:00,00:00,,0,,,,,,,,,,,,,
,,,17/09/2013,18/09/2013,00:00,00:00,,0,,,,,,,,,,,,,
,,,18/09/2013,19/09/2013,00:00,00:00,,0,,,,,,,,,,,,,
,,,19/09/2013,20/09/2013,00:00,00:00,,0,,,,,,,,,,,,,
,,,20/09/2013,21/09/2013,00:00,00:00,,0,,,,,,,,,,,,,
,,,21/09/2013,22/09/2013,00:00,00:00,,0,,,,,,,,,,,,,
,,,22/09/2013,23/09/2013,00:00,00:00,,0,,,,,,,,,,,,,
,,,23/09/2013,24/09/2013,00:00,00:00,,0,,,,,,,,,,,,,
,,,24/09/2013,25/09/2013,00:00,00:00,,0,,,,,,,,,,,,,
,,,25/09/2013,26/09/2013,00:00,00:00,,0,,,,,,,,,,,,,
,,,26/09/2013,27/09/2013,00:00,00:00,,0.266071429,,,,,,,,,,,,,
,,,27/09/2013,28/09/2013,00:00,00:00,,0.308729412,,,,,,,,,,,,,
,,,28/09/2013,29/09/2013,00:00,00:00,,0.37739823,,,,,,,,,,,,,
,,,29/09/2013,30/09/2013,00:00,00:00,,0.389550847,,,,,,,,,,,,,
,,,30/09/2013,01/10/2013,00:00,00:00,,0.394823009,,,,,,,,,,,,,
,,,01/10/2013,02/10/2013,00:00,00:00,,0.426354545,,,,,,,,,,,,,
,,,02/10/2013,03/10/2013,00:00,00:00,,0.386084337,,,,,,,,,,,,,
,,,03/10/2013,04/10/2013,00:00,00:00,,0.425779817,,,,,,,,,,,,,
,,,04/10/2013,05/10/2013,00:00,00:00,,0.380214286,,,,,,,,,,,,,
,,,05/10/2013,06/10/2013,00:00,00:00,,0.454625,,,,,,,,,,,,,
,,,06/10/2013,07/10/2013,00:00,00:00,,0.412715278,,,,,,,,,,,,,
,,,07/10/2013,08/10/2013,00:00,00:00,,0.404423611,,,,,,,,,,,,,
,,,08/10/2013,09/10/2013,00:00,00:00,,0.382180556,,,,,,,,,,,,,
,,,09/10/2013,10/10/2013,00:00,00:00,,0.402854167,,,,,,,,,,,,,
,,,10/10/2013,11/10/2013,00:00,00:00,,0.429569444,,,,,,,,,,,,,
,,,11/10/2013,12/10/2013,00:00,00:00,,0.402076389,,,,,,,,,,,,,
,,,12/10/2013,13/10/2013,00:00,00:00,,0.28375,,,,,,,,,,,,,
,,,13/10/2013,14/10/2013,00:00,00:00,,0.270854167,,,,,,,,,,,,,
,,,14/10/2013,15/10/2013,00:00,00:00,,0.3175,,,,,,,,,,,,,
,,,15/10/2013,16/10/2013,00:00,00:00,,0.319486111,,,,,,,,,,,,,
,,,16/10/2013,17/10/2013,00:00,00:00,,0.327569444,,,,,,,,,,,,,
,,,17/10/2013,18/10/2013,00:00,00:00,,0.371319444,,,,,,,,,,,,,
,,,18/10/2013,19/10/2013,00:00,00:00,,0.420951389,,,,,,,,,,,,,
,,,19/10/2013,20/10/2013,00:00,00:00,,0.457631944,,,,,,,,,,,,,
,,,20/10/2013,21/10/2013,00:00,00:00,,0.567583333,,,,,,,,,,,,,
,,,21/10/2013,22/10/2013,00:00,00:00,,0.393972222,,,,,,,,,,,,,
,,,22/10/2013,23/10/2013,00:00,00:00,,0.312847222,,,,,,,,,,,,,
,,,23/10/2013,24/10/2013,00:00,00:00,,0.309638889,,,,,,,,,,,,,
,,,24/10/2013,25/10/2013,00:00,00:00,,0.328020833,,,,,,,,,,,,,
,,,25/10/2013,26/10/2013,00:00,00:00,,0.390569444,,,,,,,,,,,,,
,,,26/10/2013,27/10/2013,00:00,00:00,,0.363395833,,,,,,,,,,,,,
,,,27/10/2013,28/10/2013,00:00,00:00,,0.349888889,,,,,,,,,,,,,
,,,28/10/2013,29/10/2013,00:00,00:00,,0.324444444,,,,,,,,,,,,,
,,,29/10/2013,30/10/2013,00:00,00:00,,0.366979167,,,,,,,,,,,,,
,,,30/10/2013,31/10/2013,00:00,00:00,,0.453395833,,,,,,,,,,,,,
,,,31/10/2013,01/11/2013,00:00,00:00,,0.612236111,,,,,,,,,,,,,
,,,01/11/2013,02/11/2013,00:00,00:00,,0.598201389,,,,,,,,,,,,,
,,,02/11/2013,03/11/2013,00:00,00:00,,0.527333333,,,,,,,,,,,,,
,,,03/11/2013,04/11/2013,00:00,00:00,,0.531131944,,,,,,,,,,,,,
,,,04/11/2013,05/11/2013,00:00,00:00,,0.528416667,,,,,,,,,,,,,
,,,05/11/2013,06/11/2013,00:00,00:00,,0.527965278,,,,,,,,,,,,,
,,,06/11/2013,07/11/2013,00:00,00:00,,0.645097222,,,,,,,,,,,,,
,,,07/11/2013,08/11/2013,00:00,00:00,,0.275243056,,,,,,,,,,,,,
,,,08/11/2013,09/11/2013,00:00,00:00,,0.201208333,,,,,,,,,,,,,
,,,09/11/2013,10/11/2013,00:00,00:00,,0.2786875,,,,,,,,,,,,,
,,,10/11/2013,11/11/2013,00:00,00:00,,0.504986111,,,,,,,,,,,,,
,,,11/11/2013,12/11/2013,00:00,00:00,,0.803451389,,,,,,,,,,,,,
,,,12/11/2013,13/11/2013,00:00,00:00,,0.531777778,,,,,,,,,,,,,
,,,13/11/2013,14/11/2013,00:00,00:00,,0.516375,,,,,,,,,,,,,
,,,14/11/2013,15/11/2013,00:00,00:00,,0.534770833,,,,,,,,,,,,,
,,,15/11/2013,16/11/2013,00:00,00:00,,0.449569444,,,,,,,,,,,,,
,,,16/11/2013,17/11/2013,00:00,00:00,,0.386611111,,,,,,,,,,,,,
,,,17/11/2013,18/11/2013,00:00,00:00,,0.491326389,,,,,,,,,,,,,
,,,18/11/2013,19/11/2013,00:00,00:00,,0.3995625,,,,,,,,,,,,,
,,,19/11/2013,20/11/2013,00:00,00:00,,0.320666667,,,,,,,,,,,,,
,,,20/11/2013,21/11/2013,00:00,00:00,,0.360381944,,,,,,,,,,,,,
,,,21/11/2013,22/11/2013,00:00,00:00,,0.392430556,,,,,,,,,,,,,
,,,22/11/2013,23/11/2013,00:00,00:00,,0.321520833,,,,,,,,,,,,,
,,,23/11/2013,24/11/2013,00:00,00:00,,0.313520833,,,,,,,,,,,,,
,,,24/11/2013,25/11/2013,00:00,00:00,,0.340166667,,,,,,,,,,,,,
,,,25/11/2013,26/11/2013,00:00,00:00,,0.513486111,,,,,,,,,,,,,
,,,26/11/2013,27/11/2013,00:00,00:00,,0.523541667,,,,,,,,,,,,,
,,,27/11/2013,28/11/2013,00:00,00:00,,0.5673125,,,,,,,,,,,,,
,,,28/11/2013,29/11/2013,00:00,00:00,,0.575631944,,,,,,,,,,,,,
,,,29/11/2013,30/11/2013,00:00,00:00,,0.503069444,,,,,,,,,,,,,
,,,30/11/2013,01/12/2013,00:00,00:00,,0.478215278,,,,,,,,,,,,,
,,,01/12/2013,02/12/2013,00:00,00:00,,0.408020833,,,,,,,,,,,,,
,,,02/12/2013,03/12/2013,00:00,00:00,,0.424125,,,,,,,,,,,,,
,,,03/12/2013,04/12/2013,00:00,00:00,,0.5553125,,,,,,,,,,,,,
,,,04/12/2013,05/12/2013,00:00,00:00,,0.719652778,,,,,,,,,,,,,
,,,05/12/2013,06/12/2013,00:00,00:00,,0.542784722,,,,,,,,,,,,,
,,,06/12/2013,07/12/2013,00:00,00:00,,0.509458333,,,,,,,,,,,,,
,,,07/12/2013,08/12/2013,00:00,00:00,,0.755805556,,,,,,,,,,,,,
,,,08/12/2013,09/12/2013,00:00,00:00,,0.50775,,,,,,,,,,,,,
,,,09/12/2013,10/12/2013,00:00,00:00,,1.492902778,,,,,,,,,,,,,
,,,10/12/2013,11/12/2013,00:00,00:00,,0.965215278,,,,,,,,,,,,,
,,,11/12/2013,12/12/2013,00:00,00:00,,0.652118056,,,,,,,,,,,,,
,,,12/12/2013,13/12/2013,00:00,00:00,,0.663583333,,,,,,,,,,,,,
,,,13/12/2013,14/12/2013,00:00,00:00,,0.677145833,,,,,,,,,,,,,
,,,14/12/2013,15/12/2013,00:00,00:00,,0.6471875,,,,,,,,,,,,,
,,,15/12/2013,16/12/2013,00:00,00:00,,0.552756944,,,,,,,,,,,,,
,,,16/12/2013,17/12/2013,00:00,00:00,,0.581798611,,,,,,,,,,,,,
,,,17/12/2013,18/12/2013,00:00,00:00,,0.645395833,,,,,,,,,,,,,
,,,18/12/2013,19/12/2013,00:00,00:00,,0.633472222,,,,,,,,,,,,,
,,,19/12/2013,20/12/2013,00:00,00:00,,0.664430556,,,,,,,,,,,,,
,,,20/12/2013,21/12/2013,00:00,00:00,,0.426013793,,,,,,,,,,,,,
,,,21/12/2013,22/12/2013,00:00,00:00,,0,,,,,,,,,,,,,
,,,22/12/2013,23/12/2013,00:00,00:00,,0,,,,,,,,,,,,,
,,,23/12/2013,24/12/2013,00:00,00:00,,0,,,,,,,,,,,,,
,,,24/12/2013,25/12/2013,00:00,00:00,,0,,,,,,,,,,,,,
,,,25/12/2013,26/12/2013,00:00,00:00,,0,,,,,,,,,,,,,
,,,26/12/2013,27/12/2013,00:00,00:00,,0,,,,,,,,,,,,,
,,,27/12/2013,28/12/2013,00:00,00:00,,0,,,,,,,,,,,,,
,,,28/12/2013,29/12/2013,00:00,00:00,,0,,,,,,,,,,,,,
,,,29/12/2013,30/12/2013,00:00,00:00,,0,,,,,,,,,,,,,
,,,30/12/2013,31/12/2013,00:00,00:00,,0,,,,,,,,,,,,,
,,,31/12/2013,01/01/2014,00:00,00:00,,0,,,,,,,,,,,,,
,,,01/01/2014,02/01/2014,00:00,00:00,,0,,,,,,,,,,,,,
,,,02/01/2014,03/01/2014,00:00,00:00,,0,,,,,,,,,,,,,
,,,03/01/2014,04/01/2014,00:00,00:00,,0,,,,,,,,,,,,,
,,,04/01/2014,05/01/2014,00:00,00:00,,0,,,,,,,,,,,,,
,,,05/01/2014,06/01/2014,00:00,00:00,,0,,,,,,,,,,,,,
,,,06/01/2014,07/01/2014,00:00,00:00,,0,,,,,,,,,,,,,
,,,07/01/2014,08/01/2014,00:00,00:00,,0,,,,,,,,,,,,,
,,,08/01/2014,09/01/2014,00:00,00:00,,0,,,,,,,,,,,,,
,,,09/01/2014,10/01/2014,00:00,00:00,,0,,,,,,,,,,,,,
,,,10/01/2014,11/01/2014,00:00,00:00,,0,,,,,,,,,,,,,
,,,11/01/2014,12/01/2014,00:00,00:00,,0,,,,,,,,,,,,,
,,,12/01/2014,13/01/2014,00:00,00:00,,0,,,,,,,,,,,,,
,,,13/01/2014,14/01/2014,00:00,00:00,,0,,,,,,,,,,,,,
,,,14/01/2014,15/01/2014,00:00,00:00,,0,,,,,,,,,,,,,
,,,15/01/2014,16/01/2014,00:00,00:00,,0,,,,,,,,,,,,,
,,,16/01/2014,17/01/2014,00:00,00:00,,0,,,,,,,,,,,,,
,,,17/01/2014,18/01/2014,00:00,00:00,,0,,,,,,,,,,,,,
,,,18/01/2014,19/01/2014,00:00,00:00,,0,,,,,,,,,,,,,
,,,19/01/2014,20/01/2014,00:00,00:00,,0,,,,,,,,,,,,,
,,,20/01/2014,21/01/2014,00:00,00:00,,0,,,,,,,,,,,,,
,,,21/01/2014,22/01/2014,00:00,00:00,,0,,,,,,,,,,,,,
,,,22/01/2014,23/01/2014,00:00,00:00,,0,,,,,,,,,,,,,
,,,23/01/2014,24/01/2014,00:00,00:00,,0,,,,,,,,,,,,,
,,,24/01/2014,25/01/2014,00:00,00:00,,0,,,,,,,,,,,,,
,,,25/01/2014,26/01/2014,00:00,00:00,,0,,,,,,,,,,,,,
,,,26/01/2014,27/01/2014,00:00,00:00,,0,,,,,,,,,,,,,
,,,27/01/2014,28/01/2014,00:00,00:00,,0,,,,,,,,,,,,,
,,,28/01/2014,29/01/2014,00:00,00:00,,0,,,,,,,,,,,,,
,,,29/01/2014,30/01/2014,00:00,00:00,,0,,,,,,,,,,,,,
,,,30/01/2014,31/01/2014,00:00,00:00,,0,,,,,,,,,,,,,
,,,31/01/2014,01/02/2014,00:00,00:00,,0,,,,,,,,,,,,,
,,,01/02/2014,02/02/2014,00:00,00:00,,0,,,,,,,,,,,,,
,,,02/02/2014,03/02/2014,00:00,00:00,,0,,,,,,,,,,,,,
,,,03/02/2014,04/02/2014,00:00,00:00,,0,,,,,,,,,,,,,
,,,04/02/2014,05/02/2014,00:00,00:00,,0,,,,,,,,,,,,,
,,,05/02/2014,06/02/2014,00:00,00:00,,0,,,,,,,,,,,,,
,,,06/02/2014,07/02/2014,00:00,00:00,,0,,,,,,,,,,,,,
,,,07/02/2014,08/02/2014,00:00,00:00,,0,,,,,,,,,,,,,
,,,08/02/2014,09/02/2014,00:00,00:00,,0,,,,,,,,,,,,,
,,,09/02/2014,10/02/2014,00:00,00:00,,0,,,,,,,,,,,,,
,,,10/02/2014,11/02/2014,00:00,00:00,,0,,,,,,,,,,,,,
,,,11/02/2014,12/02/2014,00:00,00:00,,0,,,,,,,,,,,,,
,,,12/02/2014,13/02/2014,00:00,00:00,,0,,,,,,,,,,,,,
,,,13/02/2014,14/02/2014,00:00,00:00,,0,,,,,,,,,,,,,
,,,14/02/2014,15/02/2014,00:00,00:00,,0,,,,,,,,,,,,,
,,,15/02/2014,16/02/2014,00:00,00:00,,0,,,,,,,,,,,,,
,,,16/02/2014,17/02/2014,00:00,00:00,,0,,,,,,,,,,,,,
,,,17/02/2014,18/02/2014,00:00,00:00,,0,,,,,,,,,,,,,
,,,18/02/2014,19/02/2014,00:00,00:00,,0,,,,,,,,,,,,,
,,,19/02/2014,20/02/2014,00:00,00:00,,0,,,,,,,,,,,,,